Theta_e
353 361 368 366 364 362 361 359 358 359 361 361 362 362 362 362 363 364 364 362 361 362 361 360 362 361 360 359 358 358 358 357 354 352 350 350 348 346 344 343 342 337 341
347 361 366 367 365 363 361 359 359 360 361 361 361 362 361 362 363 363 363 362 362 362 361 359 361 362 361 361 359 358 356 357 356 353 351 350 349 347 345 344 342 338 341
347 361 364 367 365 363 362 361 360 361 361 361 361 362 362 362 362 363 363 363 362 361 359 359 360 362 362 362 360 358 357 357 356 351 349 342 343 347 345 344 342 341 341
345 358 363 367 365 363 363 361 361 361 361 361 360 361 361 362 361 362 363 363 363 360 359 359 360 360 361 361 361 361 358 356 357 351 344 342 342 346 345 343 342 342 342
353 359 362 366 365 364 362 361 361 361 361 360 360 361 361 361 361 361 362 364 362 359 359 359 360 360 360 360 360 360 359 359 357 355 344 340 339 343 344 343 341 342 342
353 359 364 365 365 364 362 362 361 361 361 360 360 360 361 361 361 360 361 363 363 362 360 360 361 360 359 359 359 358 357 356 354 345 341 344 340 346 344 343 342 342 342
345 354 362 364 364 364 363 362 361 362 362 362 361 360 361 361 361 361 361 362 363 363 362 361 361 360 359 359 358 356 353 350 343 338 341 341 341 346 344 343 342 342 342
336 352 357 363 364 363 363 362 361 361 361 362 362 362 362 362 361 362 361 361 362 362 362 362 361 360 358 357 355 353 352 349 340 337 340 338 345 346 344 343 342 342 341
336 349 352 358 361 363 362 361 360 360 360 360 361 361 361 361 360 361 361 360 361 360 360 361 360 359 358 356 355 354 352 349 337 340 340 339 348 347 345 343 343 342 342
348 350 350 354 356 357 359 362 361 360 360 359 360 360 360 361 360 360 358 359 360 360 359 359 360 359 358 356 355 353 352 350 337 337 341 340 349 347 345 344 343 342 342
349 349 349 351 350 351 354 358 360 361 361 360 360 360 357 355 355 356 358 358 361 360 359 359 358 357 356 356 354 352 353 336 332 330 340 347 350 348 346 344 343 342 342
340 345 330 332 348 348 351 352 352 355 356 356 355 354 353 351 351 355 357 359 359 360 360 358 357 357 355 344 341 347 343 336 332 329 339 350 351 349 347 345 343 342 342
323 325 328 329 330 330 336 347 347 349 350 351 352 352 351 352 349 352 349 352 352 357 353 355 353 351 346 343 340 337 337 336 332 332 343 353 352 351 348 345 343 342 342
323 324 324 328 330 330 330 330 331 331 342 346 346 347 349 348 344 345 348 347 347 349 350 349 349 348 345 344 340 338 334 334 330 332 343 353 352 352 348 346 344 343 343
322 323 324 325 326 328 329 329 328 329 329 331 345 346 347 346 345 343 341 344 346 347 349 346 345 345 344 343 341 339 337 334 332 342 344 353 351 351 350 347 345 344 343
321 321 322 322 322 322 323 322 325 328 328 328 331 338 347 346 346 343 342 341 345 346 347 346 344 342 342 341 340 340 338 336 342 343 345 349 351 350 350 347 346 344 344
321 321 321 321 321 321 321 321 323 324 327 326 328 330 334 343 345 346 341 341 344 346 345 346 345 341 340 340 340 340 339 336 342 343 344 346 348 350 349 349 346 344 344
320 319 319 322 320 321 318 319 319 321 318 320 321 325 330 334 337 346 347 343 346 342 343 342 343 341 340 339 339 341 340 339 338 343 344 345 346 345 348 348 348 345 344
320 319 317 317 320 321 317 317 317 318 316 317 318 320 325 331 329 334 346 346 344 341 338 337 336 335 335 335 336 338 340 339 336 344 343 343 344 344 342 347 347 346 345
319 319 318 318 319 320 317 316 317 317 316 317 318 320 319 324 324 332 333 345 345 340 338 338 336 335 334 334 341 339 336 339 340 341 342 343 343 342 341 341 342 342 345
318 317 318 317 316 318 315 315 315 314 314 316 317 318 319 321 322 327 326 335 341 340 339 338 336 337 338 335 334 330 333 331 327 327 338 342 342 341 339 338 339 339 340
316 316 317 317 316 318 315 316 317 314 314 316 315 316 318 320 321 322 323 328 337 337 335 335 336 333 336 335 331 328 323 327 327 325 324 335 340 340 338 338 336 333 328
315 316 317 316 316 318 317 315 314 312 312 312 313 315 317 319 321 321 323 327 334 334 333 333 333 334 332 332 332 327 320 320 322 323 320 320 322 332 334 330 326 323 320
313 315 314 315 315 317 316 313 311 310 309 310 312 314 315 316 319 322 324 327 329 332 326 327 327 330 330 328 328 332 328 326 318 317 320 316 318 319 323 325 321 318 317
314 313 313 313 314 315 315 314 312 311 312 312 312 311 311 314 316 321 321 321 320 323 328 329 330 329 332 331 329 326 325 325 323 319 316 316 319 318 318 319 317 315 316
315 316 317 314 313 314 314 315 313 312 310 311 309 309 310 310 314 314 318 318 319 319 320 323 327 330 332 333 334 328 325 323 321 317 313 313 314 313 317 315 316 315 314
Wind_Speed
3 5 1 5 12 13 13 13 13 14 13 14 15 16 15 16 17 17 16 15 13 13 13 13 13 13 14 15 17 15 14 15 16 16 15 15 16 17 17 18 17 12 17
11 3 3 6 8 12 13 14 14 14 12 12 12 14 15 15 16 15 15 14 13 13 13 12 12 11 13 15 15 14 14 14 14 14 14 14 16 16 16 18 16 14 17
6 3 5 7 9 9 10 12 13 14 14 13 12 11 11 13 13 13 13 12 12 13 12 11 10 10 11 12 12 11 12 12 11 13 13 4 6 14 16 17 16 16 16
5 3 2 8 9 9 7 9 10 12 12 12 13 13 11 10 10 11 11 10 11 12 11 10 9 8 8 10 10 8 8 8 9 11 5 4 7 12 14 17 14 15 15
6 6 5 10 10 10 10 8 8 9 10 10 11 11 12 11 9 7 8 8 9 11 11 9 7 6 5 7 7 6 4 3 4 7 5 5 4 9 13 17 14 14 14
6 6 12 11 11 13 12 11 11 10 9 9 10 11 11 11 9 9 8 8 8 9 9 9 8 6 4 4 6 5 4 1 3 2 6 7 5 10 12 16 15 14 13
6 7 5 14 15 14 13 12 12 11 11 10 10 11 12 11 9 8 8 9 9 9 9 9 8 7 6 5 5 5 4 3 2 2 8 5 6 10 12 15 15 14 13
13 9 5 11 16 16 15 13 12 13 12 11 10 10 11 11 11 10 10 9 8 8 8 8 7 7 7 7 7 5 5 4 0 3 7 6 10 13 13 14 16 14 13
7 8 4 5 7 11 15 16 16 14 13 12 11 10 10 10 10 10 10 10 9 8 8 7 8 8 8 8 8 8 5 5 2 3 9 6 15 15 15 15 16 15 13
5 5 3 3 4 2 2 8 10 12 14 15 14 12 11 11 10 10 10 10 10 10 9 8 8 8 9 9 10 11 5 5 4 4 5 6 17 17 16 16 16 15 14
7 4 0 3 3 3 2 1 1 4 7 10 11 13 11 5 7 9 9 11 12 12 11 10 10 10 10 10 11 12 10 3 4 4 4 16 19 19 17 16 17 16 14
10 6 3 3 6 2 1 4 1 3 3 4 4 4 4 5 5 8 10 14 14 14 13 12 11 11 9 4 4 9 3 4 4 4 6 20 20 19 17 16 17 16 14
9 6 4 7 9 6 6 2 1 2 3 3 5 4 4 4 4 5 3 5 5 11 5 8 7 6 6 5 4 4 5 4 3 3 7 20 21 20 19 17 16 16 15
8 9 5 7 7 6 4 3 3 4 3 3 5 7 4 4 4 5 4 5 5 4 6 5 4 5 5 6 7 6 6 4 3 3 6 21 20 20 20 19 18 17 15
12 7 8 7 7 5 5 3 1 3 3 5 4 5 5 6 6 5 5 5 5 4 6 5 5 5 6 6 6 7 7 6 6 3 4 22 21 20 20 20 19 18 16
8 7 6 8 6 6 6 4 1 2 3 4 4 4 6 6 5 5 4 5 4 6 6 6 7 6 7 5 7 8 9 6 6 6 5 11 19 18 19 20 19 18 16
7 7 9 9 8 9 8 7 5 5 6 2 4 7 8 5 6 6 4 4 7 8 9 7 7 4 4 5 8 7 6 6 6 8 8 8 11 18 20 20 20 18 17
10 9 7 7 8 8 7 6 5 7 5 5 4 0 6 8 10 7 6 6 6 5 6 6 5 5 6 6 8 7 7 6 7 9 8 8 10 10 16 21 20 19 17
11 10 8 8 8 8 7 5 5 5 5 6 5 5 8 6 10 8 5 7 5 4 3 4 2 2 3 4 5 7 7 7 8 9 11 12 13 11 9 16 17 16 15
11 9 9 7 8 7 5 4 4 4 5 4 6 8 7 7 10 7 7 7 5 3 2 1 3 3 3 4 4 4 4 4 4 2 9 8 9 10 8 9 9 8 13
10 10 9 9 7 5 4 4 4 2 3 4 4 6 7 7 8 8 7 7 4 4 4 4 4 8 8 3 1 1 4 5 7 4 1 7 9 9 8 6 4 3 8
9 9 9 8 8 7 5 3 3 1 3 3 4 5 5 7 7 8 8 9 7 3 3 5 6 5 4 3 4 3 2 2 2 5 5 2 5 7 8 7 5 5 5
10 9 9 8 9 7 7 3 0 2 2 3 3 3 5 6 8 7 8 8 10 5 4 6 8 8 7 3 5 4 1 5 2 3 6 5 6 1 6 7 9 7 7
7 7 6 6 7 4 7 4 4 2 2 3 2 3 5 5 5 6 8 9 8 7 6 6 4 4 2 5 1 4 2 5 4 1 1 2 4 5 5 3 8 9 9
12 9 8 7 6 1 3 5 5 5 4 3 2 5 4 4 4 5 5 6 9 5 6 6 9 6 6 6 4 3 2 1 3 4 3 1 1 2 5 3 5 8 8
5 6 6 7 7 7 5 6 7 7 6 3 4 4 4 2 2 4 6 6 7 9 7 6 8 11 10 8 5 4 5 4 4 4 3 1 2 1 3 4 4 6 7
Wind_Direction
44 309 217 132 124 122 120 114 109 108 106 107 108 103 100 99 100 102 106 107 108 109 110 108 107 107 104 102 99 99 100 97 94 91 86 87 89 87 84 82 80 79 78
280 239 174 142 130 133 131 129 126 120 112 106 106 110 110 108 107 110 113 114 113 114 114 112 108 105 103 98 101 105 106 106 101 97 93 91 91 91 88 86 85 83 82
290 240 161 144 138 138 138 139 138 133 128 122 113 104 102 106 109 112 115 114 118 119 118 115 110 103 98 97 98 105 114 118 115 110 107 104 98 97 96 91 88 87 84
264 260 166 143 141 141 142 143 140 137 132 131 129 121 111 100 107 115 118 120 125 125 124 121 118 113 107 105 104 107 116 136 147 117 125 123 107 112 108 100 96 94 89
163 177 174 150 143 145 148 148 141 135 135 135 132 130 129 125 120 118 121 127 135 137 135 132 129 129 127 121 122 121 118 139 185 194 143 121 115 125 116 108 105 102 95
0 271 159 154 150 154 155 153 150 140 142 145 148 143 143 143 144 146 145 147 152 152 150 151 154 159 170 160 147 147 151 200 298 60 143 147 142 145 128 116 115 107 95
228 237 205 162 157 157 158 159 152 150 155 158 162 161 157 155 162 164 164 170 169 170 168 171 175 178 195 210 192 169 179 205 249 295 156 143 143 151 140 127 122 115 103
189 199 196 184 161 159 160 159 160 160 163 163 172 174 170 168 176 177 177 184 187 185 185 184 194 204 212 225 237 208 194 212 291 253 155 151 160 163 154 142 131 125 114
68 159 177 173 174 162 165 167 167 166 166 171 177 184 182 182 188 193 188 190 196 202 204 203 207 218 227 236 253 256 196 203 193 134 152 157 169 170 166 155 140 133 125
43 94 112 157 150 151 170 180 177 173 175 176 179 186 189 191 199 204 204 206 207 208 209 212 217 227 238 248 254 266 242 212 206 174 161 173 177 177 176 164 148 142 138
90 86 237 199 156 140 138 185 317 218 204 198 194 192 191 190 197 208 205 212 214 216 214 212 214 221 233 248 262 270 278 150 205 198 176 184 183 184 181 173 156 152 148
123 126 92 26 179 146 151 104 6 297 277 272 253 221 207 203 207 210 216 211 215 214 216 214 215 222 227 229 254 275 275 152 208 229 196 189 185 184 185 182 164 158 156
126 109 84 56 64 45 42 77 295 278 245 254 270 256 236 226 228 229 213 225 217 220 211 214 218 217 209 212 236 244 254 185 220 220 191 188 183 184 185 186 174 164 164
131 125 129 95 91 82 82 66 353 351 301 242 233 225 222 240 227 234 226 215 202 208 209 205 206 211 221 225 225 242 253 197 206 220 187 185 183 185 186 189 182 170 171
116 113 103 118 113 113 91 90 339 325 314 307 282 241 215 226 233 229 237 223 212 194 201 200 209 214 224 233 240 239 248 239 208 174 179 184 185 186 188 191 189 174 176
119 114 133 113 116 90 76 53 44 207 283 331 325 313 240 244 243 217 234 232 225 203 199 202 203 207 223 212 234 236 240 232 182 165 173 180 187 188 190 193 192 181 180
104 107 69 58 47 49 34 25 17 8 10 84 318 321 319 279 249 256 241 234 229 213 203 204 215 201 210 214 229 229 228 216 183 178 171 175 185 192 193 192 194 188 184
116 104 99 108 92 69 54 35 11 357 0 347 359 224 292 321 330 291 242 229 230 255 217 199 203 206 220 223 235 233 233 219 182 181 169 176 183 189 195 197 193 189 192
137 136 126 104 87 84 66 47 36 358 351 343 347 1 360 1 354 342 296 251 226 183 239 306 289 254 249 240 235 246 237 231 184 173 176 185 188 186 187 196 198 192 196
149 147 132 119 111 98 73 46 27 7 355 353 353 357 359 8 351 350 337 306 256 180 164 22 14 301 237 251 250 262 330 30 100 274 185 176 184 179 177 181 191 199 191
158 147 141 126 144 120 81 43 2 358 327 340 347 347 356 4 346 338 330 327 286 218 171 166 205 264 286 200 283 182 71 44 42 340 307 181 179 178 172 172 169 174 160
157 151 139 153 150 117 112 138 163 254 279 280 317 334 356 352 350 341 323 324 321 286 173 198 213 266 258 200 211 116 273 263 54 25 356 7 183 174 171 164 146 137 125
171 158 158 172 121 127 120 100 353 81 312 329 332 337 355 358 338 327 321 320 324 298 234 208 225 218 246 257 196 176 30 232 99 352 30 356 19 40 147 148 139 125 106
14 19 23 63 101 139 139 135 182 173 223 225 255 296 323 354 339 335 359 355 345 317 288 263 216 215 204 251 230 211 177 152 145 251 2 5 11 39 3 138 127 123 118
34 24 22 50 68 47 242 182 192 202 213 245 250 301 308 322 356 350 343 331 324 314 296 287 281 243 223 220 194 167 175 191 117 139 202 228 8 15 61 52 108 112 125
40 48 20 1 337 326 293 262 229 217 222 244 301 298 306 320 329 331 330 326 322 322 317 300 294 281 275 259 243 189 212 185 170 146 128 111 223 190 97 93 115 124 127